Location: Recife
(8.0585°S, 34.8848°W)
Time: 10:12:58
(UTC-03:00)

S-56A Canister/Altair - Pass Details

Date: 22 April 2026
Orbit: 633 x 2484 km, 38.9° (Epoch: 20 May)

Event Time Altitude Azimuth Distance (km) Brightness Sun altitude
Rises 11:03:10 0° 315° (NW) 6,138 12.3 69.3°
Reaches altitude 10° 11:07:19 10° 317° (NW) 5,076 12.0 69.4°
Maximum altitude 11:21:46 77° 41° (NE) 2,095 11.8 69.6°
Drops below altitude 10° 11:32:12 10° 126° (SE) 3,785 11.0 69.3°
Sets 11:34:50 0° 127° (SE) 4,548 11.3 69.2°
